TimeEST,TemperatureF,Dew PointF,Humidity,Sea Level PressureIn,VisibilityMPH,Wind Direction,Wind SpeedMPH,Gust SpeedMPH,PrecipitationIn,Events,Conditions,WindDirDegrees,DateUTC
12:53 AM,33.1,26.1,75,30.61,10.0,North,3.5,-,N/A,,Clear,10,2012-11-19 05:53:00
1:53 AM,30.9,26.1,82,30.60,10.0,North,5.8,-,N/A,,Clear,10,2012-11-19 06:53:00
2:53 AM,30.9,26.1,82,30.58,10.0,NNE,6.9,-,N/A,,Clear,20,2012-11-19 07:53:00
3:53 AM,28.9,25.0,85,30.56,9.0,NNE,5.8,-,N/A,,Clear,20,2012-11-19 08:53:00
4:53 AM,30.0,25.0,82,30.56,10.0,NNE,5.8,-,N/A,,Clear,30,2012-11-19 09:53:00
5:53 AM,30.0,25.0,82,30.55,7.0,NNE,5.8,-,N/A,,Clear,20,2012-11-19 10:53:00
6:53 AM,28.9,25.0,85,30.55,8.0,NNE,5.8,-,N/A,,Clear,20,2012-11-19 11:53:00
7:53 AM,30.0,26.1,85,30.55,8.0,North,8.1,-,N/A,,Clear,10,2012-11-19 12:53:00
8:53 AM,34.0,27.0,75,30.53,10.0,NNE,8.1,-,N/A,,Scattered Clouds,20,2012-11-19 13:53:00
9:26 AM,35.6,28.4,75,30.52,10.0,NNE,6.9,-,N/A,,Mostly Cloudy,20,2012-11-19 14:26:00
9:53 AM,37.9,28.0,68,30.51,10.0,North,9.2,-,N/A,,Scattered Clouds,10,2012-11-19 14:53:00
10:27 AM,39.2,28.4,65,30.50,10.0,NNE,11.5,-,N/A,,Mostly Cloudy,20,2012-11-19 15:27:00
10:53 AM,42.1,28.9,60,30.49,10.0,North,8.1,-,N/A,,Scattered Clouds,360,2012-11-19 15:53:00
11:53 AM,44.1,30.0,58,30.45,10.0,NNW,8.1,-,N/A,,Clear,340,2012-11-19 16:53:00
12:53 PM,46.9,30.9,54,30.42,10.0,NNW,6.9,-,N/A,,Clear,340,2012-11-19 17:53:00
1:53 PM,48.0,32.0,54,30.39,10.0,North,6.9,-,N/A,,Clear,360,2012-11-19 18:53:00
2:53 PM,48.0,32.0,54,30.38,10.0,North,5.8,-,N/A,,Clear,10,2012-11-19 19:53:00
3:53 PM,48.0,32.0,54,30.37,10.0,North,5.8,-,N/A,,Clear,10,2012-11-19 20:53:00
4:53 PM,46.0,30.9,56,30.35,10.0,North,3.5,-,N/A,,Clear,360,2012-11-19 21:53:00
5:53 PM,44.1,30.9,60,30.35,10.0,North,3.5,-,N/A,,Clear,360,2012-11-19 22:53:00
6:53 PM,39.0,30.0,70,30.34,10.0,Calm,Calm,-,N/A,,Clear,0,2012-11-19 23:53:00
7:53 PM,35.1,30.9,85,30.33,10.0,Calm,Calm,-,N/A,,Clear,0,2012-11-20 00:53:00
8:53 PM,34.0,28.9,82,30.32,10.0,Calm,Calm,-,N/A,,Clear,0,2012-11-20 01:53:00
9:53 PM,34.0,30.0,85,30.30,10.0,NNE,3.5,-,N/A,,Clear,30,2012-11-20 02:53:00
10:53 PM,33.1,28.9,85,30.29,10.0,NNE,3.5,-,N/A,,Clear,30,2012-11-20 03:53:00
11:53 PM,32.0,28.0,85,30.28,10.0,Calm,Calm,-,N/A,,Clear,0,2012-11-20 04:53:00